Simultaneous Nadir Overpasses (SNOs) Predictions

Prediction of SNOs between FY3D and AQUA Satellite Orbit:

Table of predicted SNOs for the next 14.0 days since TLE Epoch: 10/12/2019
Index Date (FY3D) Time (FY3D) Lat,Lon (FY3D) SZA (FY3D ) Date (AQUA) Time (AQUA) Lat,Lon (AQUA) SZA (AQUA ) Distance(km) Time Diff (sec)
1 10/13/2019 05:03:02 -68.99, 149.90 69.00 10/13/2019 05:03:28 -69.00, 149.92 69.04 0.85 26
2 10/13/2019 05:52:46 72.08, -37.79 107.94 10/13/2019 05:51:56 72.08, -37.81 108.00 0.57 50
3 10/15/2019 21:19:26 -69.06, -94.12 68.16 10/15/2019 21:19:55 -69.06, -94.13 68.19 0.19 29
4 10/15/2019 22:09:11 72.08, 78.10 108.86 10/15/2019 22:08:24 72.08, 78.07 108.93 1.49 47
5 10/18/2019 13:35:50 -69.17, 21.92 67.37 10/18/2019 13:36:22 -69.16, 21.89 67.39 1.53 32
6 10/18/2019 14:25:50 71.41,-167.23 110.44 10/18/2019 14:25:05 71.42,-167.17 110.47 2.59 45
7 10/21/2019 05:52:30 -68.43, 136.81 65.77 10/21/2019 05:53:04 -68.43, 136.85 65.83 1.69 34
8 10/21/2019 06:42:13 71.57, -51.06 111.18 10/21/2019 06:41:31 71.57, -51.04 111.22 1.02 42
9 10/23/2019 22:08:51 -68.70,-106.94 65.16 10/23/2019 22:09:28 -68.70,-106.95 65.20 0.36 37




NCC Satellite Simultaneous Nadir Overpasses (SNOs) Prediction Service
